G0TRT-13 Weather Reports


time (UTC)temp
F
wind
direction
speed
knots
gust
knots
rain 1hr
in
rain 24hr
in
rain mn
in
humidity
%
barometer
mb
20260505214936 50 291 0.0 0.0 0.00 0.00 0.00 78 1013.0
20260505214435 49 291 0.0 0.0 0.00 0.00 0.00 78 1013.0
20260505213936 49 291 0.0 0.0 0.00 0.00 0.00 77 1013.1
20260505213436 49 291 0.0 0.0 0.00 0.00 0.00 77 1013.1
20260505212933 49 291 0.0 0.0 0.00 0.00 0.00 77 1013.1
20260505212432 49 291 0.0 0.0 0.00 0.00 0.00 77 1013.1
20260505211930 49 291 0.0 0.9 0.00 0.00 0.00 77 1013.1
20260505211429 49 291 0.0 0.9 0.00 0.00 0.00 77 1013.0
20260505210930 49 291 0.0 0.9 0.00 0.00 0.00 77 1013.1
20260505210430 49 292 0.0 0.0 0.00 0.00 0.00 77 1013.1
20260505205928 49 292 0.0 0.0 0.00 0.00 0.00 76 1013.1
20260505205421 49 292 0.0 0.0 0.00 0.00 0.00 76 1013.0
20260505204915 49 292 0.0 0.0 0.00 0.00 0.00 76 1013.1
20260505204411 49 292 0.0 0.0 0.00 0.00 0.00 75 1013.0
20260505203911 49 292 0.0 0.0 0.00 0.00 0.00 75 1013.0
20260505203411 49 292 0.0 0.0 0.00 0.00 0.00 74 1013.0
20260505202909 49 292 0.0 0.0 0.00 0.00 0.00 74 1012.8
20260505202408 50 292 0.0 0.0 0.00 0.00 0.00 74 1012.9
20260505201906 50 292 0.0 0.0 0.00 0.00 0.00 74 1012.8
20260505201403 50 292 0.0 0.0 0.00 0.00 0.00 73 1012.7
20260505200901 50 292 0.0 0.0 0.00 0.00 0.00 73 1012.7
20260505200359 51 292 0.0 0.9 0.00 0.00 0.00 72 1012.7
20260505195858 51 292 0.0 0.9 0.00 0.00 0.00 72 1012.8
20260505195356 51 291 0.0 0.9 0.00 0.00 0.00 72 1012.6
20260505194854 51 291 0.0 0.9 0.00 0.00 0.00 72 1012.4
20260505194353 52 292 0.0 0.9 0.00 0.00 0.00 71 1012.4
20260505193853 52 293 0.0 0.9 0.00 0.00 0.00 71 1012.4
20260505193353 52 292 0.0 0.9 0.00 0.00 0.00 70 1012.4
20260505192854 53 292 0.0 0.9 0.00 0.00 0.00 70 1012.3
20260505192353 53 293 0.0 0.9 0.00 0.00 0.00 70 1012.3
20260505192114 53 293 0.0 0.9 0.00 0.00 0.00 69 1012.3
20260505191353 53 294 0.0 0.9 0.00 0.00 0.00 69 1012.3
20260505190851 54 293 0.0 0.9 0.00 0.00 0.00 69 1012.3
20260505190351 54 295 0.0 4.3 0.00 0.00 0.00 68 1012.2
20260505185851 54 333 0.0 4.3 0.00 0.00 0.00 68 1012.1
20260505185351 54 293 0.0 2.6 0.00 0.00 0.00 68 1012.1
20260505184852 54 296 0.0 1.7 0.00 0.00 0.00 68 1012.2
20260505184351 55 293 0.0 1.7 0.00 0.00 0.00 67 1012.1
20260505183848 55 293 0.9 2.6 0.00 0.00 0.00 68 1012.1
20260505183350 55 296 0.0 2.6 0.00 0.00 0.00 68 1012.0
20260505182847 55 342 0.9 4.3 0.00 0.00 0.00 68 1012.0
20260505182348 55 293 0.9 4.3 0.00 0.00 0.00 68 1012.0
20260505181848 55 296 0.0 2.6 0.00 0.00 0.00 67 1011.9
20260505181348 56 294 0.0 1.7 0.00 0.00 0.00 67 1012.0
20260505180847 56 319 0.0 3.5 0.00 0.00 0.00 67 1011.9
20260505180350 56 359 0.9 3.5 0.00 0.00 0.00 66 1012.1
20260505175843 56 297 0.0 3.5 0.00 0.00 0.00 66 1011.9
20260505175341 56 293 0.9 3.5 0.00 0.00 0.00 66 1011.9
20260505174839 56 288 0.9 3.5 0.00 0.00 0.00 65 1012.0
20260505174335 57 295 0.9 3.5 0.00 0.00 0.00 64 1012.0
20260505173835 57 295 0.9 3.5 0.00 0.00 0.00 63 1011.9
20260505173335 57 299 0.0 1.7 0.00 0.00 0.00 62 1012.0
20260505172834 58 295 0.0 1.7 0.00 0.00 0.00 62 1012.0
20260505172333 58 295 0.0 2.6 0.00 0.00 0.00 62 1012.1
20260505171832 58 294 0.0 2.6 0.00 0.00 0.00 62 1012.1
20260505171333 58 57 0.0 2.6 0.00 0.00 0.00 61 1012.1
20260505170833 58 306 0.0 2.6 0.00 0.00 0.00 61 1012.1
20260505170336 58 287 0.0 2.6 0.00 0.00 0.00 61 1012.1
20260505165833 58 284 0.9 2.6 0.00 0.00 0.00 60 1012.2
20260505165332 58 280 0.9 2.6 0.00 0.00 0.00 60 1012.1
20260505164833 59 297 0.9 2.6 0.00 0.00 0.00 59 1012.1
20260505164331 59 309 0.9 2.6 0.00 0.00 0.00 60 1012.1
20260505163830 59 300 0.9 1.7 0.00 0.00 0.00 59 1012.1
20260505163330 59 295 0.9 1.7 0.00 0.00 0.00 58 1012.1
20260505162830 60 297 0.0 2.6 0.00 0.00 0.00 60 1012.1
20260505162330 59 293 0.0 2.6 0.00 0.00 0.00 60 1012.1
20260505161830 60 298 0.0 1.7 0.00 0.00 0.00 60 1012.0
20260505161331 60 296 0.0 1.7 0.00 0.00 0.00 59 1012.0
20260505160830 60 295 0.9 3.5 0.00 0.00 0.00 58 1012.0
20260505160331 60 303 0.0 3.5 0.00 0.00 0.00 58 1011.9
20260505153330 61 298 0.0 1.7 0.00 0.00 0.00 55 1012.0
20260505152831 61 293 0.0 2.6 0.00 0.00 0.00 56 1012.0
20260505152330 62 299 0.0 2.6 0.00 0.00 0.00 54 1012.0
20260505151836 62 293 0.0 2.6 0.00 0.00 0.00 53 1012.1
20260505151338 63 310 0.0 1.7 0.00 0.00 0.00 53 1012.1
20260505150829 63 302 0.0 1.7 0.00 0.00 0.00 51 1012.2
20260505150325 64 297 0.0 2.6 0.00 0.00 0.00 52 1012.2
20260505140307 63 298 0.0 2.6 0.00 0.00 0.00 57 1012.4
20260505130234 63 302 0.0 4.3 0.00 0.00 0.00 57 1012.8
20260505124731 62 296 0.9 3.5 0.00 0.00 0.00 59 1012.8
20260505124231 63 12 0.0 3.5 0.00 0.00 0.00 57 1012.8
20260505123730 62 297 0.0 3.5 0.00 0.00 0.00 60 1012.9
20260505123230 62 305 0.9 3.5 0.00 0.00 0.00 59 1012.8
20260505122730 62 349 0.9 5.2 0.00 0.00 0.00 60 1012.8
20260505122230 61 278 0.9 5.2 0.00 0.00 0.00 60 1012.9
20260505121730 61 266 0.9 5.2 0.00 0.00 0.00 60 1012.9
20260505121231 62 321 0.9 5.2 0.00 0.00 0.00 58 1012.9
20260505120731 62 286 0.9 2.6 0.00 0.00 0.00 60 1012.9
20260505120230 61 285 0.9 2.6 0.00 0.00 0.00 62 1012.8
20260505115733 62 288 0.9 3.5 0.00 0.00 0.00 60 1012.9
20260505115230 61 287 0.9 3.5 0.00 0.00 0.00 62 1012.9
20260505114731 61 359 0.9 5.2 0.00 0.00 0.00 61 1012.8
20260505114232 61 312 0.9 5.2 0.00 0.00 0.00 62 1012.9
20260505113733 61 294 0.9 5.2 0.00 0.00 0.00 60 1012.8
20260505113231 63 259 0.0 3.5 0.00 0.00 0.00 59 1012.8
20260505112730 62 103 0.9 7.0 0.00 0.00 0.00 61 1012.9
20260505112231 61 178 0.9 7.0 0.00 0.00 0.00 61 1013.0
20260505111730 61 235 0.9 5.2 0.00 0.00 0.00 62 1013.0
20260505111230 60 294 0.9 5.2 0.00 0.00 0.00 62 1013.1
20260505110731 60 286 0.9 4.3 0.00 0.00 0.00 62 1013.0
20260505110231 60 283 0.9 5.2 0.00 0.00 0.00 63 1013.1
20260505101736 58 309 0.9 6.1 0.00 0.00 0.00 65 1013.4
20260505101230 58 98 0.0 3.5 0.00 0.00 0.00 67 1013.5
20260505100729 57 232 0.9 2.6 0.00 0.00 0.00 68 1013.5
20260505100229 57 98 0.9 2.6 0.00 0.00 0.00 68 1013.5
20260505095729 57 94 0.9 2.6 0.00 0.00 0.00 69 1013.6
20260505095231 56 231 0.0 2.6 0.00 0.00 0.00 69 1013.6
20260505094731 56 232 0.0 1.7 0.00 0.00 0.00 69 1013.5
20260505094231 56 90 0.9 1.7 0.00 0.00 0.00 69 1013.6
20260505093729 55 212 0.9 3.5 0.00 0.00 0.00 69 1013.6
20260505093229 55 231 0.0 3.5 0.00 0.00 0.00 71 1013.5
20260505092729 55 231 0.0 3.5 0.00 0.00 0.00 70 1013.6
20260505092229 55 229 0.9 3.5 0.00 0.00 0.00 71 1013.6
20260505091729 54 89 0.9 2.6 0.00 0.00 0.00 71 1013.7
20260505091229 54 231 0.9 2.6 0.00 0.00 0.00 72 1013.6
20260505090725 54 91 0.9 2.6 0.00 0.00 0.00 71 1013.5
20260505090219 54 94 0.9 1.7 0.00 0.00 0.00 71 1013.6
20260505085713 55 231 0.0 1.7 0.00 0.00 0.00 71 1013.5
20260505085209 55 229 0.0 2.6 0.00 0.00 0.00 72 1013.6
20260505084707 55 205 0.9 2.6 0.00 0.00 0.00 72 1013.7
20260505084206 55 222 0.9 4.3 0.00 0.00 0.00 71 1013.7
20260505083705 55 101 0.9 4.3 0.00 0.00 0.00 71 1013.8
20260505083204 55 103 0.9 3.5 0.00 0.00 0.00 72 1013.7
20260505082705 54 229 0.9 5.2 0.00 0.00 0.00 75 1013.7
20260505082205 54 220 0.0 5.2 0.00 0.00 0.00 76 1013.8
20260505081705 53 228 0.9 4.3 0.00 0.00 0.00 77 1013.7
20260505081207 52 217 0.9 4.3 0.00 0.00 0.00 78 1013.7
20260505080705 52 229 0.9 4.3 0.00 0.00 0.00 79 1013.8
20260505080205 51 96 0.9 4.3 0.00 0.00 0.00 79 1013.7
20260505075705 51 259 0.0 1.7 0.00 0.00 0.00 80 1013.8
20260505075205 51 261 0.0 1.7 0.00 0.00 0.00 80 1013.9
20260505074705 51 260 0.0 1.7 0.00 0.00 0.00 82 1013.8
20260505074205 51 259 0.0 0.9 0.00 0.00 0.00 84 1013.9
20260505073705 51 260 0.0 1.7 0.00 0.00 0.00 86 1013.9
20260505073204 51 260 0.0 1.7 0.00 0.00 0.00 88 1014.0
20260505072706 50 259 0.0 1.7 0.00 0.00 0.00 90 1013.9
20260505072204 49 261 0.0 1.7 0.00 0.00 0.00 91 1014.0
20260505071705 49 261 0.0 1.7 0.00 0.00 0.00 91 1014.0
20260505071205 49 262 0.0 0.9 0.00 0.00 0.00 92 1014.0
20260505070705 49 259 0.0 0.9 0.00 0.00 0.00 91 1014.0
20260505070205 48 260 0.0 0.0 0.00 0.00 0.00 92 1014.0
20260505065705 48 260 0.0 0.9 0.00 0.00 0.00 92 1014.0
20260505065207 48 261 0.0 0.9 0.00 0.00 0.00 91 1014.0
20260505064707 49 262 0.0 0.9 0.00 0.00 0.00 92 1014.0
20260505064207 48 261 0.0 0.9 0.00 0.00 0.00 93 1014.0
20260505063707 48 261 0.0 0.9 0.00 0.00 0.00 93 1014.0
20260505063207 47 261 0.0 0.0 0.00 0.00 0.00 92 1014.0
20260505062705 47 261 0.0 0.9 0.00 0.00 0.00 92 1013.9
20260505062204 47 261 0.0 0.9 0.00 0.00 0.00 92 1013.8
20260505061702 47 261 0.0 0.9 0.00 0.00 0.00 92 1013.8
20260505061201 47 261 0.0 0.9 0.00 0.00 0.00 92 1013.8
20260505060659 47 261 0.0 0.0 0.00 0.00 0.00 92 1013.8
20260505060159 46 261 0.0 0.9 0.00 0.00 0.00 92 1013.8
20260505055657 46 261 0.0 0.9 0.00 0.00 0.00 92 1013.8
20260505055155 46 261 0.0 0.9 0.00 0.00 0.00 92 1013.6
20260505054654 46 262 0.0 0.9 0.00 0.00 0.00 92 1013.7
20260505054154 45 261 0.0 0.9 0.00 0.00 0.00 92 1013.7
20260505053654 45 261 0.0 0.9 0.00 0.00 0.00 92 1013.7
20260505053152 45 262 0.0 0.0 0.00 0.00 0.00 92 1013.7
20260505052650 45 262 0.0 0.0 0.00 0.00 0.00 92 1013.6
20260505052148 44 262 0.0 0.0 0.00 0.00 0.00 92 1013.6
20260505051645 44 262 0.0 0.0 0.00 0.00 0.00 92 1013.6
20260505051144 44 262 0.0 0.0 0.00 0.00 0.00 92 1013.6
20260505050640 44 262 0.0 0.9 0.00 0.00 0.00 92 1013.7
20260505050139 44 262 0.0 0.9 0.00 0.00 0.00 92 1013.5
20260505041620 45 262 0.0 0.0 0.00 0.00 0.00 91 1013.9
20260505041119 45 262 0.0 0.0 0.00 0.00 0.00 91 1013.8
20260505040619 46 262 0.0 0.0 0.00 0.00 0.00 91 1013.9
20260505040117 46 262 0.0 0.0 0.00 0.00 0.00 91 1013.9
20260505035615 46 262 0.0 0.9 0.00 0.00 0.00 91 1014.0
20260505035114 46 262 0.0 0.9 0.00 0.00 0.00 91 1014.0
20260505034611 46 262 0.0 0.0 0.00 0.00 0.00 91 1013.9
20260505034109 46 262 0.0 0.0 0.00 0.00 0.00 90 1013.8
20260505033607 47 262 0.0 0.0 0.00 0.00 0.00 90 1013.8
20260505033105 47 262 0.0 0.0 0.00 0.00 0.00 90 1013.8
20260505032603 47 262 0.0 0.0 0.00 0.00 0.00 90 1013.7
20260505032105 47 262 0.0 0.0 0.00 0.00 0.00 90 1013.7
20260505031602 47 262 0.0 0.9 0.00 0.00 0.00 90 1013.7
20260505031102 47 262 0.0 0.9 0.00 0.00 0.00 90 1013.7
20260505030603 47 262 0.0 0.9 0.00 0.00 0.00 90 1013.7
20260505030104 48 262 0.0 0.0 0.00 0.00 0.00 90 1013.7
20260505025603 48 262 0.0 0.9 0.00 0.00 0.00 90 1013.6
20260505025103 48 262 0.0 0.9 0.00 0.00 0.00 90 1013.6
20260505024603 48 262 0.0 0.9 0.00 0.00 0.00 90 1013.7
20260505024057 48 262 0.0 0.9 0.00 0.00 0.00 90 1013.7
20260505023551 49 262 0.0 0.9 0.00 0.00 0.00 90 1013.7
20260505023045 49 262 0.0 0.9 0.00 0.00 0.00 90 1013.7
20260505022539 49 262 0.0 0.9 0.00 0.00 0.00 90 1013.8
20260505022033 49 262 0.0 0.0 0.00 0.00 0.00 89 1013.9
20260505021534 49 262 0.0 0.0 0.00 0.00 0.00 89 1013.9
20260505021034 49 262 0.0 0.0 0.00 0.00 0.00 89 1013.9
20260505020536 50 262 0.0 0.0 0.00 0.00 0.00 89 1013.9
20260505020031 50 262 0.0 0.0 0.00 0.00 0.00 89 1014.0
20260505015531 50 262 0.0 0.9 0.00 0.00 0.00 89 1014.1
20260505015031 50 262 0.0 0.9 0.00 0.00 0.00 89 1014.1
20260505014531 50 262 0.0 0.9 0.00 0.00 0.00 89 1014.1
20260505014032 50 262 0.0 0.9 0.00 0.00 0.00 89 1014.1
20260505013531 50 262 0.0 0.9 0.00 0.00 0.00 89 1013.9
20260505013032 50 262 0.0 0.9 0.00 0.00 0.00 89 1014.1
20260505012530 50 262 0.0 0.9 0.00 0.00 0.00 89 1014.1
20260505012032 50 262 0.0 0.9 0.00 0.00 0.00 89 1014.0
20260505011531 50 262 0.0 0.9 0.00 0.00 0.00 89 1014.1
20260505011031 50 262 0.0 0.0 0.00 0.00 0.00 89 1014.2
20260505010531 51 262 0.0 0.0 0.00 0.00 0.00 89 1014.1
20260505010035 51 262 0.0 0.0 0.00 0.00 0.00 88 1014.2
20260505005537 51 262 0.0 0.0 0.00 0.00 0.00 88 1014.2
20260505005033 51 262 0.0 0.0 0.00 0.00 0.00 88 1014.2
20260505004529 51 262 0.0 0.0 0.00 0.00 0.00 88 1014.3
20260505004022 51 262 0.0 0.0 0.00 0.00 0.00 88 1014.4
20260505003516 51 262 0.0 0.0 0.00 0.00 0.00 88 1014.4
20260505003013 51 262 0.0 0.0 0.00 0.00 0.00 88 1014.4
20260505002511 51 262 0.0 0.9 0.00 0.00 0.00 88 1014.5
20260505002009 51 262 0.0 0.9 0.00 0.00 0.00 88 1014.4
20260505001509 51 262 0.0 0.9 0.00 0.00 0.00 88 1014.4
20260505001015 51 262 0.0 0.9 0.00 0.00 0.00 88 1014.5
20260505000508 51 261 0.0 0.9 0.00 0.00 0.00 88 1014.5
20260505000007 51 262 0.0 0.9 0.00 0.00 0.00 87 1014.6
20260504235505 51 261 0.0 0.9 0.00 0.00 0.00 87 1014.5
20260504235006 51 262 0.0 0.9 0.00 0.00 0.00 87 1014.6
20260504234004 52 261 0.0 0.9 0.00 0.00 0.00 87 1014.5
20260504233502 52 261 0.0 0.9 0.00 0.00 0.00 86 1014.6
20260504233003 52 261 0.0 0.9 0.00 0.00 0.00 86 1014.5
20260504232502 52 261 0.0 0.9 0.00 0.00 0.00 86 1014.5
20260504232004 52 261 0.0 1.7 0.00 0.00 0.00 86 1014.5
20260504231505 52 260 0.9 4.3 0.00 0.00 0.00 86 1014.6
20260504231003 52 255 0.9 4.3 0.00 0.00 0.00 86 1014.5
20260504230457 52 255 0.9 2.6 0.00 0.00 0.00 87 1014.4
20260504225957 52 256 0.0 2.6 0.00 0.00 0.00 87 1014.5
20260504225458 52 256 0.0 1.7 0.00 0.00 0.00 87 1014.5
20260504224958 52 256 0.0 2.6 0.00 0.00 0.00 87 1014.6
20260504224456 52 255 0.0 2.6 0.00 0.00 0.00 87 1014.7
20260504223954 52 256 0.0 0.9 0.00 0.00 0.00 87 1014.6
20260504223451 52 256 0.0 1.7 0.00 0.00 0.00 86 1014.6
20260504222949 52 256 0.0 2.6 0.00 0.00 0.00 86 1014.8
20260504222448 52 255 0.0 2.6 0.00 0.00 0.00 86 1014.7
20260504221946 52 256 0.0 2.6 0.00 0.00 0.00 86 1014.8
20260504221445 53 255 0.0 1.7 0.00 0.00 0.00 86 1014.9
20260504220945 53 255 0.0 1.7 0.00 0.00 0.00 86 1014.9
20260504220443 53 255 0.0 1.7 0.00 0.00 0.00 86 1014.9
20260504215944 53 255 0.0 0.9 0.00 0.00 0.00 86 1014.9
20260504215443 53 255 0.0 0.9 0.00 0.00 0.00 86 1014.9